Thunderstorms From: 26-05-2018 21:24 Until: 27-05-2018 15:00 warning for: Thunderstorms Level: Yellow info button

Although rather usual in this region, locally or potentially dangerous phenomena are expected. (such as local winds, summer thunderstorms, rising streams or high waves) Be aware and pay attention to the latest weather updates, especially if you carry out activities exposed to weather or close to a stream or shoreline. 


Meteo18 Weather Cam more information Meteo18 Weather Cam


warning for Thunderstorms more information blitzortung!


Rain radar more information rain snow radar


Visit our other weather sites:

Template documentation
and downloads

And another site



Weather Underground History page Text

Daily Summary for March 16, 2016 Units:  Metric    English   Both
« Previous Day
Next Day »
Daily Weekly Monthly Yearly Custom
  High: Low: Average:
Temperature: -17.8 °C -16.6 °C -15.3 °C
Dew Point: -17.8 °C -18.4 °C -17.4 °C
Humidity: Humidity % 61 % 77 %
Wind Speed: 0 km/h 0 km/h 8.4 km/h
Wind Gust: 0 km/h - -
Wind:- - ENE
Pressure: 0 hPa 34452.6 hPa -
Precipitation: 25.4 mm    
Historical Graphs
 
 
Tabular Data for March 16, 2016
Time Temperature Dew Point Pressure Wind Wind Speed Wind Gust Humidity Rainfall Rate (Hourly)
-17.8 °C -17.8 °C 0 hPa Calm     Humidity % 0 mm
00:02 -14.1 °C -15.8 °C 34462.7 hPa ENE 15.6 km/h 33.6 km/h 81 % 0 mm
00:07 -14.1 °C -15.8 °C 34462.7 hPa NE 5.1 km/h 33.6 km/h 81 % 0 mm
00:12 -14.2 °C -15.8 °C 34462.7 hPa NNE 5.1 km/h 25.9 km/h 82 % 0 mm
00:17 -14.2 °C -15.8 °C 34462.7 hPa NNE 18.2 km/h 25.9 km/h 82 % 0 mm
00:22 -14.2 °C -15.8 °C 34462.7 hPa NNE 7.7 km/h 25.9 km/h 82 % 0 mm
00:27 -14.2 °C -15.8 °C 34462.7 hPa NE 2.6 km/h 36.2 km/h 82 % 0 mm
00:32 -14.2 °C -15.7 °C 34462.7 hPa SSE 2.6 km/h 36.2 km/h 83 % 0 mm
00:37 -14.2 °C -15.7 °C 34462.7 hPa NE 5.1 km/h 36.2 km/h 83 % 0 mm
00:47 -14.3 °C -15.8 °C 34462.7 hPa ENE 2.6 km/h 23.3 km/h 83 % 0 mm
00:52 -14.3 °C -15.8 °C 34462.7 hPa NE 15.6 km/h 23.3 km/h 83 % 0 mm
00:57 -14.3 °C -15.8 °C 34462.7 hPa NNE 12.9 km/h 23.3 km/h 83 % 0 mm
01:02 -14.4 °C -15.9 °C 34462.7 hPa NNE 18.2 km/h 33.6 km/h 83 % 0 mm
01:07 -14.4 °C -15.9 °C 34462.7 hPa North 5.1 km/h 33.6 km/h 83 % 0 mm
01:12 -14.5 °C -16 °C 34462.7 hPa NE 5.1 km/h 33.6 km/h 83 % 0 mm
01:17 -14.5 °C -16.1 °C 34452.6 hPa North 7.7 km/h 31.1 km/h 82 % 0 mm
01:22 -14.6 °C -16.1 °C 34462.7 hPa WNW 10.3 km/h 31.1 km/h 82 % 0 mm
01:27 -14.6 °C -16.3 °C 34462.7 hPa North 15.6 km/h 31.1 km/h 81 % 0 mm
01:32 -14.7 °C -16.3 °C 34462.7 hPa NE 2.6 km/h 31.1 km/h 81 % 0 mm
01:37 -14.7 °C -16.3 °C 34462.7 hPa NE 2.6 km/h 31.1 km/h 82 % 0 mm
01:42 -14.8 °C -16.3 °C 34462.7 hPa NE 7.7 km/h 31.1 km/h 82 % 0 mm
01:47 -14.8 °C -16.5 °C 34462.7 hPa ENE 5.1 km/h 18.2 km/h 81 % 0 mm
01:52 -14.8 °C -16.6 °C 34462.7 hPa ENE 7.7 km/h 18.2 km/h 80 % 0 mm
01:57 -14.9 °C -16.8 °C 34462.7 hPa NE 10.3 km/h 36.2 km/h 78 % 0 mm
02:02 -14.9 °C -16.9 °C 34462.7 hPa NNE 10.3 km/h 46.7 km/h 78 % 0 mm
02:07 -15 °C -17.1 °C 34462.7 hPa NE 7.7 km/h 46.7 km/h 77 % 0 mm
02:12 -15.1 °C -17.1 °C 34462.7 hPa ENE 5.1 km/h 46.7 km/h 77 % 0 mm
02:17 -15.1 °C -17.1 °C 34462.7 hPa ENE 7.7 km/h 36.2 km/h 77 % 0 mm
02:22 -15.1 °C -17.2 °C 34462.7 hPa NE 10.3 km/h 33.6 km/h 77 % 0 mm
02:27 -15.1 °C -17.3 °C 34462.7 hPa ENE 18.2 km/h 33.6 km/h 76 % 0 mm
02:32 -15.1 °C -17.4 °C 34462.7 hPa NE 7.7 km/h 31.1 km/h 75 % 0 mm
02:37 -15.2 °C -17.3 °C 34462.7 hPa ENE 5.1 km/h 31.1 km/h 76 % 0 mm
02:42 -15.2 °C -17.3 °C 34462.7 hPa ENE 7.7 km/h 31.1 km/h 76 % 0 mm
02:47 -15.2 °C -17.4 °C 34462.7 hPa East 2.6 km/h 25.9 km/h 76 % 0 mm
02:52 -15.2 °C -17.3 °C 34462.7 hPa NE 12.9 km/h 25.9 km/h 77 % 0 mm
02:57 -15.3 °C -17.4 °C 34462.7 hPa NE 10.3 km/h 23.3 km/h 77 % 0 mm
03:02 -15.4 °C -17.4 °C 34462.7 hPa SE 10.3 km/h 20.8 km/h 78 % 0 mm
03:07 -15.7 °C -17.5 °C 34462.7 hPa SE 5.1 km/h 25.9 km/h 79 % 0 mm
03:12 -15.8 °C -17.5 °C 34462.7 hPa ENE 5.1 km/h 25.9 km/h 80 % 0 mm
03:17 -15.9 °C -17.6 °C 34452.6 hPa North 23.3 km/h 25.9 km/h 80 % 0 mm
03:22 -15.9 °C -17.7 °C 34452.6 hPa East 2.6 km/h 46.7 km/h 80 % 0 mm
03:32 -16.1 °C -17.7 °C 34452.6 hPa NE 7.7 km/h 46.7 km/h 81 % 0 mm
03:37 -16.1 °C -17.7 °C 34452.6 hPa NE 10.3 km/h 31.1 km/h 81 % 0 mm
03:42 -16.2 °C -17.7 °C 34452.6 hPa ESE 10.3 km/h 31.1 km/h 82 % 0 mm
03:47 -16.2 °C -17.7 °C 34462.7 hPa NE 12.9 km/h 28.5 km/h 82 % 0 mm
03:57 -16.1 °C -17.7 °C 34462.7 hPa NE 31.1 km/h 31.1 km/h 82 % 0 mm
04:02 -16.1 °C -17.6 °C 34462.7 hPa NE 2.6 km/h 36.2 km/h 82 % 0 mm
04:07 -16.1 °C -17.7 °C 34462.7 hPa NNE 18.2 km/h 36.2 km/h 81 % 0 mm
04:12 -16.1 °C -17.7 °C 34462.7 hPa NNE 15.6 km/h 36.2 km/h 81 % 0 mm
04:17 -16.1 °C -17.6 °C 34462.7 hPa North 7.7 km/h 33.6 km/h 82 % 0 mm
04:22 -16.1 °C -17.6 °C 34462.7 hPa NNE 7.7 km/h 33.6 km/h 82 % 0 mm
04:32 -16.2 °C -17.7 °C 34462.7 hPa NE 10.3 km/h 33.6 km/h 82 % 0 mm
04:37 -16.1 °C -17.7 °C 34462.7 hPa NE 7.7 km/h 38.8 km/h 81 % 0 mm
04:42 -16.2 °C -17.7 °C 34462.7 hPa Calm   38.8 km/h 82 % 0 mm
04:47 -16.1 °C -17.7 °C 34462.7 hPa ENE 7.7 km/h 38.8 km/h 81 % 0 mm
04:52 -16.1 °C -17.7 °C 34462.7 hPa ENE 10.3 km/h 38.8 km/h 81 % 0 mm
04:57 -16.1 °C -17.7 °C 34462.7 hPa ENE 15.6 km/h 25.9 km/h 81 % 0 mm
05:02 -16.1 °C -17.7 °C 34462.7 hPa NE 20.8 km/h 28.5 km/h 81 % 0 mm
05:12 -16.1 °C -17.7 °C 34462.7 hPa NE 7.7 km/h 31.1 km/h 81 % 0 mm
05:17 -16.1 °C -17.7 °C 34462.7 hPa ENE 5.1 km/h 31.1 km/h 81 % 0 mm
05:22 -16.2 °C -17.7 °C 34462.7 hPa ENE 23.3 km/h 23.3 km/h 82 % 0 mm
05:27 -16.2 °C -17.7 °C 34462.7 hPa SE 7.7 km/h 23.3 km/h 82 % 0 mm
05:32 -16.2 °C -17.8 °C 34462.7 hPa ENE 5.1 km/h 23.3 km/h 82 % 0 mm
05:37 -16.2 °C -17.7 °C 34462.7 hPa NNE 7.7 km/h 25.9 km/h 83 % 0 mm
05:42 -16.2 °C -17.7 °C 34462.7 hPa East 5.1 km/h 25.9 km/h 83 % 0 mm
05:47 -16.3 °C -17.7 °C 34462.7 hPa NNE 10.3 km/h 25.9 km/h 83 % 0 mm
05:52 -16.3 °C -17.8 °C 34462.7 hPa ENE 5.1 km/h 31.1 km/h 83 % 0 mm
05:57 -16.3 °C -17.8 °C 34462.7 hPa East 2.6 km/h 31.1 km/h 83 % 0 mm
06:02 -16.4 °C -17.8 °C 34462.7 hPa East 2.6 km/h 31.1 km/h 84 % 0 mm
06:12 -16.4 °C -17.8 °C 34462.7 hPa WSW 7.7 km/h 31.1 km/h 83 % 0 mm
06:17 -16.4 °C -17.7 °C 34462.7 hPa Calm   31.1 km/h 84 % 0 mm
06:22 -16.3 °C -17.8 °C 34462.7 hPa ESE 5.1 km/h 31.1 km/h 83 % 0 mm
06:27 -16.3 °C -17.7 °C 34462.7 hPa ESE 2.6 km/h 23.3 km/h 84 % 0 mm
06:32 -16.3 °C -17.7 °C 34462.7 hPa East 2.6 km/h 23.3 km/h 84 % 0 mm
06:37 -16.3 °C -17.7 °C 34462.7 hPa ENE 2.6 km/h 25.9 km/h 84 % 0 mm
06:42 -16.3 °C -17.7 °C 34462.7 hPa ENE 5.1 km/h 25.9 km/h 83 % 0 mm
06:47 -16.2 °C -17.6 °C 34462.7 hPa ESE 18.2 km/h 25.9 km/h 84 % 0 mm
06:57 -16.2 °C -17.5 °C 34462.7 hPa ENE 15.6 km/h 28.5 km/h 84 % 0 mm
07:02 -16.2 °C -17.5 °C 34462.7 hPa ENE 2.6 km/h 28.5 km/h 84 % 0 mm
07:12 -16.2 °C -17.5 °C 34462.7 hPa SE 7.7 km/h 23.3 km/h 84 % 0 mm
07:17 -16.1 °C -17.4 °C 34462.7 hPa East 5.1 km/h 23.3 km/h 84 % 0 mm
07:22 -16.1 °C -17.3 °C 34462.7 hPa East 5.1 km/h 23.3 km/h 85 % 0 mm
07:32 -16.1 °C -17.4 °C 34462.7 hPa NE 7.7 km/h 25.9 km/h 84 % 0 mm
07:37 -16 °C -17.3 °C 34462.7 hPa NE 12.9 km/h 33.6 km/h 84 % 0 mm
07:42 -16 °C -17.3 °C 34462.7 hPa ESE 2.6 km/h 33.6 km/h 84 % 0 mm
07:47 -16 °C -17.4 °C 34462.7 hPa SE 5.1 km/h 33.6 km/h 83 % 0 mm
07:52 -16 °C -17.4 °C 34462.7 hPa East 5.1 km/h 18.2 km/h 83 % 0 mm
07:57 -15.9 °C -17.4 °C 34462.7 hPa SE 2.6 km/h 18.2 km/h 83 % 0 mm
08:02 -15.9 °C -17.5 °C 34476.3 hPa ESE 5.1 km/h 20.8 km/h 82 % 0 mm
08:07 -15.9 °C -17.4 °C 34476.3 hPa ENE 2.6 km/h 20.8 km/h 82 % 0 mm
08:12 -15.9 °C -17.4 °C 34476.3 hPa NE 7.7 km/h 20.8 km/h 82 % 0 mm
08:17 -15.8 °C -17.4 °C 34476.3 hPa ENE 5.1 km/h 28.5 km/h 82 % 0 mm
08:22 -15.8 °C -17.4 °C 34476.3 hPa NNE 2.6 km/h 28.5 km/h 81 % 0 mm
08:27 -15.7 °C -17.4 °C 34476.3 hPa East 5.1 km/h 20.8 km/h 80 % 0 mm
08:32 -15.7 °C -17.6 °C 34476.3 hPa NE 5.1 km/h 25.9 km/h 78 % 0 mm
08:37 -15.7 °C -17.7 °C 34476.3 hPa NE 5.1 km/h 25.9 km/h 77 % 0 mm
08:42 -15.7 °C -17.8 °C 34476.3 hPa NNE 20.8 km/h 28.5 km/h 77 % 0 mm
08:47 -15.7 °C -17.7 °C 34462.7 hPa East 2.6 km/h 31.1 km/h 77 % 0 mm
08:52 -15.6 °C -17.6 °C 34462.7 hPa ENE 20.8 km/h 36.2 km/h 77 % 0 mm
08:57 -15.5 °C -17.6 °C 34476.3 hPa NNE 10.3 km/h 36.2 km/h 76 % 0 mm
09:02 -15.4 °C -17.6 °C 34476.3 hPa North 10.3 km/h 38.8 km/h 76 % 0 mm
09:12 -15.4 °C -17.6 °C 34476.3 hPa SSE 7.7 km/h 38.8 km/h 75 % 0 mm
09:17 -15.4 °C -17.6 °C 34476.3 hPa North 15.6 km/h 31.1 km/h 76 % 0 mm
09:22 -15.3 °C -17.4 °C 34476.3 hPa East 18.2 km/h 31.1 km/h 76 % 0 mm
09:27 -15.1 °C -17.2 °C 34476.3 hPa East 20.8 km/h 31.1 km/h 76 % 0 mm
09:32 -15.1 °C -17.4 °C 34476.3 hPa NNE 31.1 km/h 38.8 km/h 75 % 0 mm
09:42 -15.1 °C -17.2 °C 34476.3 hPa ENE 20.8 km/h 41.4 km/h 76 % 0 mm
09:52 -15.2 °C -17.4 °C 34476.3 hPa NNW 7.7 km/h 51.8 km/h 75 % 0 mm
09:57 -15.2 °C -17.4 °C 34486.4 hPa NE 18.2 km/h 44.1 km/h 76 % 0 mm
10:02 -15.1 °C -17.2 °C 34486.4 hPa NNE 10.3 km/h 38.8 km/h 77 % 0 mm
10:07 -15.1 °C -17.4 °C 34486.4 hPa NE 31.1 km/h 36.2 km/h 75 % 0 mm
10:12 -15.2 °C -17.3 °C 34486.4 hPa NE 15.6 km/h 36.2 km/h 76 % 0 mm
10:22 -15.4 °C -17.4 °C 34496.6 hPa NNE 18.2 km/h 36.2 km/h 77 % 0 mm
10:27 -15.4 °C -17.4 °C 34496.6 hPa NNE 5.1 km/h 36.2 km/h 77 % 0 mm
10:32 -15.4 °C -17.6 °C 34496.6 hPa East 12.9 km/h 36.2 km/h 76 % 0 mm
10:37 -15.5 °C -17.6 °C 34496.6 hPa ENE 7.7 km/h 41.4 km/h 76 % 0 mm
10:42 -15.5 °C -17.6 °C 34496.6 hPa NE 25.9 km/h 41.4 km/h 76 % 0 mm
10:47 -15.5 °C -17.6 °C 34496.6 hPa NE 7.7 km/h 41.4 km/h 76 % 0 mm
10:52 -15.5 °C -17.6 °C 34486.4 hPa NE 15.6 km/h 36.2 km/h 76 % 0 mm
10:57 -15.5 °C -17.6 °C 34496.6 hPa NE 10.3 km/h 36.2 km/h 76 % 0 mm
11:02 -15.5 °C -17.7 °C 34486.4 hPa NE 10.3 km/h 31.1 km/h 75 % 0 mm
11:12 -15.4 °C -17.8 °C 34486.4 hPa NE 7.7 km/h 36.2 km/h 74 % 0 mm
11:17 -15.4 °C -17.6 °C 34486.4 hPa NNE 12.9 km/h 33.6 km/h 75 % 0 mm
11:22 -15.4 °C -17.7 °C 34486.4 hPa NE 15.6 km/h 31.1 km/h 74 % 0 mm
11:27 -15.4 °C -17.8 °C 34486.4 hPa NE 10.3 km/h 33.6 km/h 73 % 0 mm
11:32 -15.3 °C -17.8 °C 34486.4 hPa NE 7.7 km/h 33.6 km/h 73 % 0 mm
11:37 -15.3 °C -17.7 °C 34486.4 hPa East 7.7 km/h 41.4 km/h 73 % 0 mm
11:42 -15.3 °C -17.7 °C 34486.4 hPa NE 5.1 km/h 41.4 km/h 73 % 0 mm
11:47 -15.2 °C -17.6 °C 34486.4 hPa NNE 15.6 km/h 31.1 km/h 73 % 0 mm
11:52 -15.1 °C -17.5 °C 34486.4 hPa North 10.3 km/h 31.1 km/h 73 % 0 mm
11:57 -14.9 °C -17.6 °C 34486.4 hPa NE 18.2 km/h 31.1 km/h 71 % 0 mm
12:02 -14.9 °C -17.7 °C 34476.3 hPa NNE 12.9 km/h 33.6 km/h 70 % 0 mm
12:07 -14.9 °C -17.8 °C 34476.3 hPa NE 23.3 km/h 44.1 km/h 69 % 0 mm
12:12 -14.9 °C -17.7 °C 34476.3 hPa NNE 15.6 km/h 44.1 km/h 70 % 0 mm
12:22 -14.8 °C -17.6 °C 34476.3 hPa NE 10.3 km/h 36.2 km/h 70 % 0 mm
12:27 -14.7 °C -17.2 °C 34476.3 hPa East 10.3 km/h 31.1 km/h 72 % 0 mm
12:32 -14.6 °C -17.2 °C 34476.3 hPa NNE 18.2 km/h 31.1 km/h 72 % 0 mm
12:37 -14.6 °C -17.4 °C 34476.3 hPa NNE 7.7 km/h 28.5 km/h 70 % 0 mm
12:42 -14.7 °C -17.4 °C 34476.3 hPa SE 10.3 km/h 36.2 km/h 70 % 0 mm
12:47 -14.7 °C -17.8 °C 34476.3 hPa NNE 12.9 km/h 36.2 km/h 67 % 0 mm
12:52 -14.7 °C -17.5 °C 34476.3 hPa NE 7.7 km/h 36.2 km/h 70 % 0 mm
12:57 -14.7 °C -17.6 °C 34476.3 hPa NE 10.3 km/h 36.2 km/h 69 % 0 mm
13:02 -14.8 °C -17.8 °C 34476.3 hPa NE 5.1 km/h 33.6 km/h 68 % 0 mm
13:07 -14.7 °C -17.4 °C 34476.3 hPa NE 10.3 km/h 36.2 km/h 70 % 0 mm
13:12 -14.7 °C -17.7 °C 34476.3 hPa ENE 10.3 km/h 36.2 km/h 68 % 0 mm
13:17 -14.7 °C -17.6 °C 34476.3 hPa NE 20.8 km/h 38.8 km/h 69 % 0 mm
13:22 -14.8 °C -17.7 °C 34476.3 hPa NE 10.3 km/h 38.8 km/h 69 % 0 mm
13:27 -14.8 °C -17.7 °C 34476.3 hPa ENE 5.1 km/h 33.6 km/h 69 % 0 mm
13:32 -14.8 °C -17.6 °C 34476.3 hPa NE 33.6 km/h 33.6 km/h 70 % 0 mm
13:37 -14.7 °C -17.7 °C 34476.3 hPa ENE 25.9 km/h 41.4 km/h 68 % 0 mm
13:42 -14.7 °C -17.6 °C 34462.7 hPa NNE 28.5 km/h 41.4 km/h 69 % 0 mm
13:47 -14.6 °C -17.6 °C 34462.7 hPa NE 12.9 km/h 41.4 km/h 68 % 0 mm
13:52 -14.2 °C -17.3 °C 34462.7 hPa ESE 7.7 km/h 38.8 km/h 67 % 0 mm
13:57 -13.7 °C -17 °C 34462.7 hPa NE 25.9 km/h 33.6 km/h 66 % 0 mm
14:02 -13.7 °C -17.2 °C 34462.7 hPa ENE 20.8 km/h 44.1 km/h 64 % 0 mm
14:12 -14.1 °C -17.6 °C 34462.7 hPa East 2.6 km/h 44.1 km/h 64 % 0 mm
14:17 -14.1 °C -17.4 °C 34462.7 hPa ENE 18.2 km/h 44.1 km/h 66 % 0 mm
14:22 -14.1 °C -18 °C 34452.6 hPa NNE 10.3 km/h 44.1 km/h 61 % 0 mm
14:27 -14.2 °C -17.7 °C 34452.6 hPa NE 10.3 km/h 36.2 km/h 64 % 0 mm
14:32 -14.2 °C -17.8 °C 34462.7 hPa ENE 12.9 km/h 28.5 km/h 63 % 0 mm
14:37 -14.2 °C -17.6 °C 34462.7 hPa NE 10.3 km/h 28.5 km/h 65 % 0 mm
14:42 -14.2 °C -17.8 °C 34462.7 hPa ENE 5.1 km/h 28.5 km/h 63 % 0 mm
14:47 -14.3 °C -17.8 °C 34462.7 hPa NE 7.7 km/h 33.6 km/h 64 % 0 mm
14:52 -14.3 °C -17.8 °C 34462.7 hPa East 7.7 km/h 33.6 km/h 64 % 0 mm
14:57 -14.3 °C -17.7 °C 34462.7 hPa ESE 12.9 km/h 33.6 km/h 65 % 0 mm
15:02 -14.3 °C -17.9 °C 34462.7 hPa NNE 18.2 km/h 20.8 km/h 63 % 0 mm
15:07 -14.3 °C -17.8 °C 34462.7 hPa NNE 10.3 km/h 20.8 km/h 64 % 0 mm
15:17 -14.2 °C -17.8 °C 34462.7 hPa NNE 7.7 km/h 18.2 km/h 63 % 0 mm
15:22 -14.3 °C -17.7 °C 34462.7 hPa ENE 5.1 km/h 31.1 km/h 65 % 0 mm
15:27 -14.4 °C -18 °C 34462.7 hPa NE 28.5 km/h 31.1 km/h 63 % 0 mm
15:32 -14.5 °C -18 °C 34462.7 hPa NE 12.9 km/h 38.8 km/h 64 % 0 mm
15:37 -14.6 °C -18.1 °C 34462.7 hPa ENE 7.7 km/h 38.8 km/h 64 % 0 mm
15:42 -14.6 °C -18.2 °C 34462.7 hPa East 7.7 km/h 38.8 km/h 63 % 0 mm
15:47 -14.6 °C -17.9 °C 34462.7 hPa NE 18.2 km/h 38.8 km/h 65 % 0 mm
15:52 -14.6 °C -18 °C 34462.7 hPa North 7.7 km/h 28.5 km/h 65 % 0 mm
15:57 -14.6 °C -17.9 °C 34462.7 hPa North 15.6 km/h 28.5 km/h 66 % 0 mm
16:02 -14.7 °C -17.9 °C 34462.7 hPa ESE 5.1 km/h 23.3 km/h 66 % 0 mm
16:07 -14.7 °C -18.1 °C 34462.7 hPa SW 2.6 km/h 28.5 km/h 65 % 0 mm
16:12 -14.6 °C -17.7 °C 34462.7 hPa NE 12.9 km/h 28.5 km/h 67 % 0 mm
16:17 -14.6 °C -17.8 °C 34462.7 hPa NNE 10.3 km/h 31.1 km/h 66 % 0 mm
16:22 -14.6 °C -18.2 °C 34462.7 hPa NE 5.1 km/h 31.1 km/h 63 % 0 mm
16:27 -14.6 °C -18.1 °C 34462.7 hPa NE 12.9 km/h 31.1 km/h 64 % 0 mm
16:32 -14.6 °C -18.1 °C 34462.7 hPa NNW 7.7 km/h 31.1 km/h 64 % 0 mm
16:37 -14.5 °C -18 °C 34462.7 hPa NE 10.3 km/h 31.1 km/h 64 % 0 mm
16:42 -14.5 °C -18 °C 34462.7 hPa Calm   20.8 km/h 64 % 0 mm
16:47 -14.4 °C -17.8 °C 34462.7 hPa Calm   20.8 km/h 65 % 0 mm
16:52 -14.5 °C -18 °C 34462.7 hPa NNE 20.8 km/h 20.8 km/h 64 % 0 mm
16:57 -14.6 °C -18.1 °C 34462.7 hPa ENE 7.7 km/h 25.9 km/h 64 % 0 mm
17:07 -14.6 °C -18 °C 34462.7 hPa NNE 10.3 km/h 28.5 km/h 65 % 0 mm
17:12 -14.7 °C -18.1 °C 34476.3 hPa ESE 5.1 km/h 28.5 km/h 65 % 0 mm
17:17 -14.7 °C -18.1 °C 34476.3 hPa NNE 7.7 km/h 25.9 km/h 65 % 0 mm
17:22 -14.8 °C -18.2 °C 34476.3 hPa Calm   25.9 km/h 65 % 0 mm
17:27 -14.8 °C -18.2 °C 34476.3 hPa NE 7.7 km/h 23.3 km/h 65 % 0 mm
17:37 -14.9 °C -18.4 °C 34476.3 hPa NNE 5.1 km/h 25.9 km/h 64 % 0 mm
17:42 -14.9 °C -18.1 °C 34476.3 hPa NE 12.9 km/h 31.1 km/h 66 % 0 mm
17:47 -14.9 °C -18.1 °C 34476.3 hPa NW 2.6 km/h 31.1 km/h 66 % 0 mm
17:52 -14.9 °C -18.2 °C 34476.3 hPa NNE 2.6 km/h 31.1 km/h 66 % 0 mm
17:57 -14.9 °C -18.2 °C 34476.3 hPa NNE 10.3 km/h 28.5 km/h 66 % 0 mm
18:02 -14.9 °C -17.9 °C 34476.3 hPa NNE 7.7 km/h 18.2 km/h 68 % 0 mm
18:07 -15 °C -18.1 °C 34476.3 hPa North 12.9 km/h 25.9 km/h 67 % 0 mm
18:12 -15.1 °C -18.3 °C 34486.4 hPa NE 2.6 km/h 25.9 km/h 66 % 0 mm
18:17 -15.1 °C -18.1 °C 34486.4 hPa SE 2.6 km/h 25.9 km/h 68 % 0 mm
18:22 -15.1 °C -18.2 °C 34486.4 hPa NE 5.1 km/h 25.9 km/h 67 % 0 mm
18:27 -15.1 °C -18.1 °C 34486.4 hPa NE 5.1 km/h 28.5 km/h 68 % 0 mm
18:32 -15.1 °C -18.2 °C 34486.4 hPa ESE 2.6 km/h 28.5 km/h 67 % 0 mm
18:42 -15.1 °C -18.1 °C 34486.4 hPa SE 2.6 km/h 28.5 km/h 68 % 0 mm
18:47 -15.1 °C -18.2 °C 34486.4 hPa ESE 12.9 km/h 23.3 km/h 67 % 0 mm
18:52 -15.1 °C -18.2 °C 34486.4 hPa ENE 5.1 km/h 28.5 km/h 67 % 0 mm
18:57 -15.1 °C -18.1 °C 34496.6 hPa NNE 10.3 km/h 28.5 km/h 68 % 0 mm
19:02 -15.1 °C -18.1 °C 34496.6 hPa NE 7.7 km/h 25.9 km/h 68 % 0 mm
19:07 -15.2 °C -18.3 °C 34486.4 hPa NE 5.1 km/h 18.2 km/h 67 % 0 mm
19:12 -15.2 °C -18.2 °C 34496.6 hPa SE 5.1 km/h 18.2 km/h 68 % 0 mm
19:17 -15.2 °C -18.1 °C 34496.6 hPa Calm   18.2 km/h 69 % 0 mm
19:22 -15.2 °C -18.1 °C 34496.6 hPa ENE 5.1 km/h 12.9 km/h 69 % 0 mm
19:27 -15.2 °C -18.2 °C 34496.6 hPa ESE 7.7 km/h 15.6 km/h 68 % 0 mm
19:32 -15.2 °C -18.2 °C 34496.6 hPa ENE 10.3 km/h 23.3 km/h 68 % 0 mm
19:37 -15.2 °C -18.2 °C 34496.6 hPa ENE 15.6 km/h 23.3 km/h 68 % 0 mm
19:42 -15.2 °C -18.2 °C 34510.1 hPa Calm   20.8 km/h 68 % 0 mm
19:52 -15.3 °C -18.2 °C 34510.1 hPa NE 2.6 km/h 18.2 km/h 69 % 0 mm
19:57 -15.3 °C -18.2 °C 34510.1 hPa ENE 5.1 km/h 15.6 km/h 69 % 0 mm
20:07 -15.3 °C -18 °C 34520.3 hPa Calm   20.8 km/h 71 % 0 mm
20:12 -15.3 °C -17.8 °C 34520.3 hPa Calm   20.8 km/h 73 % 0 mm
20:17 -15.4 °C -17.6 °C 34520.3 hPa Calm   12.9 km/h 75 % 0 mm
20:22 -15.4 °C -17.5 °C 34520.3 hPa North 2.6 km/h 12.9 km/h 77 % 0 mm
20:27 -15.5 °C -17.4 °C 34533.8 hPa Calm   7.7 km/h 78 % 0 mm
20:32 -15.6 °C -17.3 °C 34520.3 hPa Calm   7.7 km/h 80 % 0 mm
20:37 -15.7 °C -17.1 °C 34533.8 hPa ENE 5.1 km/h 7.7 km/h 83 % 0 mm
20:42 -15.8 °C -17.1 °C 34533.8 hPa Calm   18.2 km/h 85 % 0 mm
20:47 -16 °C -17.2 °C 34533.8 hPa North 2.6 km/h 18.2 km/h 86 % 0 mm
20:52 -16.1 °C -17.1 °C 34533.8 hPa Calm   18.2 km/h 88 % 0 mm
20:57 -16.2 °C -17.1 °C 34533.8 hPa NNE 5.1 km/h 7.7 km/h 89 % 7.62 mm
21:02 -16.3 °C -17.2 °C 34533.8 hPa NE 2.6 km/h 10.3 km/h 89 % 7.62 mm
21:12 -16.3 °C -17.1 °C 34533.8 hPa NNE 7.7 km/h 10.3 km/h 91 % 12.7 mm
21:17 -16.4 °C -17.1 °C 34544 hPa NNE 10.3 km/h 12.9 km/h 91 % 12.7 mm
21:22 -16.4 °C -17.1 °C 34544 hPa NNE 5.1 km/h 20.8 km/h 92 % 12.7 mm
21:27 -16.4 °C -17.1 °C 34544 hPa NNE 2.6 km/h 20.8 km/h 92 % 12.7 mm
21:32 -16.4 °C -17.1 °C 34544 hPa Calm   10.3 km/h 92 % 20.32 mm
21:37 -16.4 °C -17 °C 34544 hPa Calm   10.3 km/h 93 % 20.32 mm
21:42 -16.4 °C -17 °C 34544 hPa NNE 5.1 km/h 7.7 km/h 93 % 20.32 mm
21:47 -16.5 °C -17.1 °C 34544 hPa Calm   12.9 km/h 93 % 20.32 mm
21:52 -16.5 °C -17.1 °C 34544 hPa Calm   12.9 km/h 93 % 12.7 mm
21:57 -16.4 °C -17 °C 34544 hPa Calm   12.9 km/h 93 % 12.7 mm
22:02 -16.4 °C -17 °C 34544 hPa Calm   10.3 km/h 93 % 12.7 mm
22:12 -16.4 °C -16.9 °C 34544 hPa Calm   5.1 km/h 94 % 12.7 mm
22:17 -16.4 °C -16.9 °C 34554.1 hPa Calm   5.1 km/h 94 % 7.62 mm
22:22 -16.4 °C -16.9 °C 34554.1 hPa NNE 2.6 km/h 5.1 km/h 94 % 7.62 mm
22:27 -16.4 °C -16.9 °C 34554.1 hPa Calm   5.1 km/h 94 % 0 mm
22:32 -16.4 °C -16.9 °C 34554.1 hPa Calm   2.6 km/h 94 % 0 mm
22:37 -16.4 °C -16.9 °C 34554.1 hPa Calm   2.6 km/h 94 % 0 mm
22:47 -16.4 °C -16.9 °C 34554.1 hPa Calm   7.7 km/h 94 % 7.62 mm
22:52 -16.4 °C -16.9 °C 34554.1 hPa Calm   7.7 km/h 94 % 7.62 mm
23:02 -16.4 °C -16.9 °C 34554.1 hPa Calm   7.7 km/h 94 % 7.62 mm
23:07 -16.4 °C -16.9 °C 34554.1 hPa Calm   7.7 km/h 94 % 7.62 mm
23:12 -16.4 °C -16.9 °C 34554.1 hPa Calm   5.1 km/h 94 % 7.62 mm
23:17 -16.4 °C -16.9 °C 34554.1 hPa Calm   5.1 km/h 94 % 7.62 mm
23:22 -16.4 °C -16.9 °C 34554.1 hPa Calm   2.6 km/h 94 % 7.62 mm
23:27 -16.4 °C -16.9 °C 34554.1 hPa Calm   2.6 km/h 94 % 7.62 mm
23:32 -16.5 °C -17 °C 34554.1 hPa Calm   2.6 km/h 94 % 7.62 mm
23:37 -16.5 °C -17 °C 34554.1 hPa Calm   2.6 km/h 94 % 7.62 mm
23:42 -16.6 °C -17.1 °C 34554.1 hPa Calm   2.6 km/h 94 % 0 mm
23:47 -16.6 °C -17.1 °C 34554.1 hPa NE 5.1 km/h 7.7 km/h 94 % 0 mm
23:52 -16.6 °C -17.1 °C 34554.1 hPa Calm   7.7 km/h 94 % 0 mm
23:57 -16.6 °C -17.1 °C 34567.7 hPa Calm   7.7 km/h 94 % 0 mm
Meteo18
Compliments of Weather Underground - 4 mb

Script developed by  Jim McMurry - jmcmurry@mwt.net Adapted for the template by  Wim van der Kuil - Leuven-Template.eu

You find our weather info also at:

European Weather Network

Weather Underground

Equipment we use:

Weather-station
Davis Vue

Weather-program
Meteobridge

Weather-server
Raspberry PI 2 B+

Provider
1 and 1

Davis Vue

Meteobridge

Raspberry PI 2 B+

1 and 1